Flag for Japan Weather past 2 weeks in Minamisōma, Japan

Now
77 °F

Passing clouds.


Feels Like: 78 °F
Forecast: 54 / 76 °F
Wind: 12 mph from Southwest

Location: Sendai Airport

Current Time: May 23, 2015 at 10:29:29 AM

Latest Report: May 23, 2015 at 9:00 AM


Visibility: N/A

Pressure: 29.86 "Hg

Humidity: 28%

Dew point: 41 °F

Location of MinamisōmaLocation

Historic Weather in Minamisōma — Graph

°F

Minamisōma temperature yesterday

Maximum temperature yesterday: 82 °F (at 2:00 PM)
Minimum temperature yesterday: 59 °F (at 6:00 AM)
Average temperature yesterday: 73 °F

Past Weeks' High & Low Weather Summary

 TemperatureHumidityPressure
High84 °F (May 14, 1:00 PM)100% (May 12, 9:00 PM)30.18 "Hg (May 12, 9:00 PM)
Low52 °F (May 9, 9:00 PM)17% (May 17, 2:04 PM)29.50 "Hg (May 13, 6:00 AM)
Average65 °F57%29.78 "Hg
* Reported May 8 9:00 AM — May 23 9:00 AM, Minamisōma, Weather by CustomWeather, © 2015

Note: Actual official high and low records may vary slightly from our data, if they occured in-between our weather recording intervals... More about our weather records

Advertising

Minamisōma weather history for previous 24 hours

 ConditionsComfort  
Time TempWeatherWind HumidityBarometerVisibility
9:00 AM
Sat, May 23
77 °FPassing clouds.12 mph28%29.86 "HgN/A
8:00 AM75 °FSunny.10 mph31%29.86 "Hg10 mi
7:00 AM70 °FSunny.12 mph40%29.86 "Hg10 mi
6:00 AM66 °FSunny.9 mph46%29.86 "Hg10 mi
9:00 PM
Fri, May 22
72 °FClear.6 mph31%29.83 "Hg10 mi
8:00 PM70 °FClear.12 mph33%29.83 "Hg10 mi
7:00 PM72 °FClear.9 mph31%29.80 "Hg10 mi
6:00 PM79 °FSunny.14 mph21%29.77 "Hg10 mi
5:00 PM81 °FPassing clouds.15 mph23%29.77 "HgN/A
4:00 PM82 °FPassing clouds.18 mph20%29.77 "HgN/A
3:00 PM82 °FPassing clouds.17 mph20%29.77 "HgN/A
2:00 PM82 °FPassing clouds.17 mph21%29.77 "HgN/A
1:00 PM81 °FScattered clouds.14 mph23%29.80 "HgN/A
12:00 PM77 °FPartly sunny.13 mph28%29.83 "HgN/A
11:00 AM75 °FPartly sunny.17 mph25%29.86 "HgN/A
10:00 AM72 °FPartly sunny.18 mph33%29.86 "HgN/A
Weather by CustomWeather, © 2015

See weather overviewHow to use our weather pages